Regional Weather Roundup
Issued by NWS Little Rock, AR

Home | Current Version | Previous Version | Graphics & Text | Print | Product List | Glossary On
Versions: 1 2 3 4 5 6 7 8 9 10 11 12 13 14 15 16 17 18 19 20 21 22 23 24 25 26 27 28 29 30 31 32 33 34 35 36 37 38 39 40 41 42 43 44 45 46 47 48 49 50
000
ASUS44 KLZK 061205
RWRLZK

WEATHER ROUNDUP FOR ARKANSAS
NATIONAL WEATHER SERVICE LITTLE ROCK AR
700 AM CDT MON JUL 06 2015

NOTE: "FAIR" INDICATES FEW OR NO CLOUDS BELOW 12,000 FEET WITH NO
SIGNIFICANT WEATHER AND/OR OBSTRUCTIONS TO VISIBILITY.

ARZ001-003-010-029-061300-
NORTHWEST ARKANSAS

CITY           SKY/WX    TMP DP  RH WIND       PRES   REMARKS
FAYETTEVILLE   MOCLDY    72  70  93 S8        30.04R
6HR MIN TEMP:  70; 6HR MAX TEMP:  73;

FORT SMITH     CLOUDY    73  70  90 E5        30.02R
6HR MIN TEMP:  72; 6HR MAX TEMP:  74;

HARRISON       PTCLDY    71  70  96 E7        30.06R
6HR MIN TEMP:  70; 6HR MAX TEMP:  72;

BENTONVILLE    MOCLDY    73  68  83 S8        30.04R
ROGERS         MOCLDY    72  70  93 S7        30.04R
6HR MIN TEMP:  71; 6HR MAX TEMP:  72;

SILOAM SPGS    CLOUDY    73  66  78 S8        30.04R
6HR MIN TEMP:  72; 6HR MAX TEMP:  73;

HIGHFILL       MOCLDY    73  71  93 S8        30.03R
6HR MIN TEMP:  72; 6HR MAX TEMP:  73;

SPRINGDALE     MOCLDY    73  70  88 S7        30.06R
$$

ARZ004-005-016-061300-
NORTH CENTRAL ARKANSAS

CITY           SKY/WX    TMP DP  RH WIND       PRES   REMARKS
BATESVILLE     SUNNY     72  66  83 CALM      30.07R
6HR MIN TEMP:  70; 6HR MAX TEMP:  73;

FLIPPIN        MOSUNNY   70  68  94 CALM      30.03R
6HR MIN TEMP:  70; 6HR MAX TEMP:  73;

MTN HOME       MOSUNNY   70  69  97 S6        30.04R
6HR MIN TEMP:  69; 6HR MAX TEMP:  72;

$$

ARZ040-041-061300-
WEST CENTRAL ARKANSAS

CITY           SKY/WX    TMP DP  RH WIND       PRES   REMARKS
MENA           CLOUDY    77  73  88 SW5       30.08R
MOUNT IDA      MOCLDY    75  71  87 VRB3      30.06R
6HR MIN TEMP:  70; 6HR MAX TEMP:  75;

$$

ARZ009-017-025-026-028-061300-
NORTHEAST ARKANSAS

CITY           SKY/WX    TMP DP  RH WIND       PRES   REMARKS
JONESBORO      PTSUNNY   70  69  97 S9        30.09R
6HR MIN TEMP:  70; 6HR MAX TEMP:  73;

NEWPORT        MOSUNNY   71  69  93 S9        30.09R
6HR MIN TEMP:  70; 6HR MAX TEMP:  74;

WALNUT RIDGE   CLOUDY    72  66  83 S10       30.07S
6HR MIN TEMP:  72; 6HR MAX TEMP:  73;

BLYTHEVILLE    SUNNY     72  70  93 S8        30.10R
6HR MIN TEMP:  71; 6HR MAX TEMP:  75;

$$

ARZ022-023-033-042-044-061300-
CENTRAL ARKANSAS

CITY           SKY/WX    TMP DP  RH WIND       PRES   REMARKS
LITTLE ROCK    CLOUDY    71  67  87 S6        30.08R
6HR MIN TEMP:  69; 6HR MAX TEMP:  71;

N LITTLE ROCK    N/A     71  70  96 S6        30.08
6HR MIN TEMP:  68; 6HR MAX TEMP:  72;

JACKSONVILLE   CLOUDY    71  69  91 SE7       30.08R
6HR MIN TEMP:  69; 6HR MAX TEMP:  72;

SEARCY         CLOUDY    70  69  97 S6        30.10R
6HR MIN TEMP:  68; 6HR MAX TEMP:  71;

HOT SPRINGS    CLOUDY    74  71  91 SW3       30.08R
6HR MIN TEMP:  71; 6HR MAX TEMP:  74;

RUSSELLVILLE   MOCLDY    73  70  90 CALM      30.05R
6HR MIN TEMP:  71; 6HR MAX TEMP:  74;

CLINTON        CLOUDY    72  72 100 CALM      30.09R
$$

ARZ036-061300-
EAST ARKANSAS

CITY           SKY/WX    TMP DP  RH WIND       PRES   REMARKS
WEST MEMPHIS   PTSUNNY   70  70 100 S8        30.11R
6HR MIN TEMP:  68; 6HR MAX TEMP:  71;

$$

ARZ050-053-066-070-073-061300-
SOUTHWEST ARKANSAS

CITY           SKY/WX    TMP DP  RH WIND       PRES   REMARKS
ARKADELPHIA    FOG       71  71 100 CALM      30.09R VSB 1
6HR MIN TEMP:  70; 6HR MAX TEMP:  71;

CAMDEN         CLOUDY    68  66  94 CALM      30.09R FOG
TEXARKANA      CLOUDY    73  73 100 S6        30.08R FOG
6HR MIN TEMP:  71; 6HR MAX TEMP:  73;

EL DORADO      MOCLDY    69  68  96 S6        30.09R
6HR MIN TEMP:  68; 6HR MAX TEMP:  69;

DE QUEEN       CLOUDY    73  72  96 CALM      30.04R FOG
6HR MIN TEMP:  72; 6HR MAX TEMP:  73;

$$

ARZ056-057-069-061300-
SOUTHEAST ARKANSAS

CITY           SKY/WX    TMP DP  RH WIND       PRES   REMARKS
PINE BLUFF     PTSUNNY   68  67  96 CALM      30.10R
6HR MIN TEMP:  67; 6HR MAX TEMP:  69;

STUTTGART      CLOUDY    72  66  83 S6        30.09R
6HR MIN TEMP:  70; 6HR MAX TEMP:  72;

MONTICELLO     MOSUNNY   67  67 100 CALM      30.11R
6HR MIN TEMP:  66; 6HR MAX TEMP:  69;


$$




USA.gov is the U.S. government's official web portal to all federal, state and local government web resources and services.